| time (UTC) | temp F | wind direction | speed MPH | gust MPH | rain 1hr in | rain 24hr in | rain mn in | humidity % | barometer mb |
| 20260506072605 | 56 | 166 | 0.0 | 0.0 | 0.00 | 0.08 | 0.00 | 89 | 1017.3 |
| 20260506072337 | 56 | 168 | 0.0 | 0.0 | 0.00 | 0.08 | 0.00 | 89 | 1017.3 |
| 20260506071606 | 56 | 168 | 0.0 | 0.0 | 0.00 | 0.08 | 0.00 | 89 | 1017.2 |
| 20260506071107 | 56 | 168 | 0.0 | 0.0 | 0.00 | 0.08 | 0.00 | 89 | 1017.2 |
| 20260506070606 | 56 | 168 | 0.0 | 0.0 | 0.00 | 0.08 | 0.00 | 89 | 1017.2 |
| 20260506070108 | 56 | 168 | 0.0 | 0.0 | 0.00 | 0.08 | 0.00 | 89 | 1017.2 |
| 20260506062106 | 56 | 164 | 0.0 | 0.0 | 0.00 | 0.09 | 0.08 | 89 | 1017.1 |
| 20260506061605 | 56 | 164 | 0.0 | 0.0 | 0.00 | 0.09 | 0.08 | 89 | 1017.0 |
| 20260506061107 | 56 | 164 | 0.0 | 0.0 | 0.00 | 0.09 | 0.08 | 89 | 1016.9 |
| 20260506060605 | 56 | 164 | 0.0 | 0.0 | 0.00 | 0.09 | 0.08 | 89 | 1016.9 |
| 20260506060106 | 56 | 164 | 0.0 | 0.0 | 0.00 | 0.09 | 0.08 | 89 | 1016.8 |
| 20260506051105 | 56 | 313 | 0.0 | 0.0 | 0.00 | 0.09 | 0.08 | 89 | 1016.6 |
| 20260506050603 | 56 | 340 | 0.0 | 0.0 | 0.00 | 0.09 | 0.08 | 89 | 1016.6 |
| 20260506050104 | 56 | 340 | 0.0 | 0.0 | 0.00 | 0.09 | 0.08 | 89 | 1016.6 |
| 20260506045105 | 56 | 340 | 0.0 | 0.0 | 0.00 | 0.09 | 0.08 | 89 | 1016.5 |
| 20260506044603 | 56 | 340 | 0.0 | 0.0 | 0.00 | 0.09 | 0.08 | 89 | 1016.4 |
| 20260506044102 | 56 | 340 | 0.0 | 0.0 | 0.00 | 0.09 | 0.08 | 89 | 1016.5 |
| 20260506043602 | 56 | 340 | 0.0 | 0.0 | 0.00 | 0.09 | 0.08 | 89 | 1016.4 |
| 20260506043321 | 56 | 340 | 0.0 | 0.0 | 0.00 | 0.09 | 0.08 | 89 | 1016.3 |
| 20260506042603 | 56 | 340 | 0.0 | 0.0 | 0.00 | 0.09 | 0.08 | 89 | 1016.2 |
| 20260506042328 | 56 | 340 | 0.0 | 0.0 | 0.00 | 0.09 | 0.08 | 89 | 1016.2 |
| 20260506041822 | 56 | 340 | 0.0 | 0.0 | 0.00 | 0.09 | 0.08 | 89 | 1016.1 |
| 20260506041104 | 56 | 340 | 0.0 | 0.0 | 0.00 | 0.09 | 0.08 | 89 | 1016.0 |
| 20260506040823 | 56 | 340 | 0.0 | 0.0 | 0.00 | 0.09 | 0.08 | 89 | 1016.0 |
| 20260506035600 | 56 | 340 | 0.0 | 0.0 | 0.00 | 0.09 | 0.08 | 89 | 1015.8 |
| 20260506035102 | 56 | 340 | 0.0 | 0.0 | 0.00 | 0.09 | 0.08 | 89 | 1015.9 |
| 20260506034825 | 56 | 340 | 0.0 | 0.0 | 0.00 | 0.09 | 0.08 | 89 | 1015.8 |
| 20260506034103 | 56 | 340 | 0.0 | 0.0 | 0.00 | 0.09 | 0.08 | 89 | 1015.7 |
| 20260506033601 | 56 | 340 | 0.0 | 0.0 | 0.00 | 0.09 | 0.08 | 88 | 1015.6 |
| 20260506033322 | 56 | 340 | 0.0 | 0.0 | 0.00 | 0.09 | 0.08 | 88 | 1015.6 |
| 20260506032601 | 56 | 340 | 0.0 | 0.0 | 0.00 | 0.09 | 0.08 | 88 | 1015.6 |
| 20260506032102 | 56 | 340 | 0.0 | 0.0 | 0.00 | 0.09 | 0.08 | 88 | 1015.5 |
| 20260506031820 | 56 | 340 | 0.0 | 0.0 | 0.00 | 0.09 | 0.08 | 88 | 1015.5 |
| 20260506031329 | 56 | 340 | 0.0 | 0.0 | 0.00 | 0.09 | 0.08 | 88 | 1015.4 |
| 20260506030601 | 57 | 340 | 0.0 | 0.0 | 0.00 | 0.09 | 0.08 | 88 | 1015.3 |
| 20260506025600 | 57 | 340 | 0.0 | 1.0 | 0.00 | 0.09 | 0.08 | 87 | 1015.2 |
| 20260506025323 | 57 | 340 | 0.0 | 1.0 | 0.00 | 0.09 | 0.08 | 87 | 1015.2 |
| 20260506024600 | 57 | 340 | 0.0 | 1.0 | 0.00 | 0.09 | 0.08 | 87 | 1015.2 |
| 20260506024102 | 57 | 324 | 0.0 | 1.0 | 0.00 | 0.09 | 0.08 | 87 | 1015.1 |
| 20260506023600 | 57 | 326 | 0.0 | 1.0 | 0.00 | 0.09 | 0.08 | 87 | 1015.1 |
| 20260506023101 | 57 | 358 | 0.0 | 1.0 | 0.00 | 0.09 | 0.08 | 87 | 1014.9 |
| 20260506022558 | 57 | 336 | 0.0 | 1.0 | 0.00 | 0.09 | 0.08 | 86 | 1015.0 |
| 20260506022101 | 57 | 336 | 0.0 | 1.0 | 0.00 | 0.09 | 0.08 | 86 | 1014.9 |
| 20260506021600 | 58 | 344 | 0.0 | 1.0 | 0.00 | 0.09 | 0.08 | 86 | 1014.9 |
| 20260506021101 | 58 | 344 | 0.0 | 1.0 | 0.00 | 0.09 | 0.08 | 86 | 1015.0 |
| 20260506020559 | 58 | 344 | 0.0 | 1.0 | 0.00 | 0.09 | 0.08 | 86 | 1015.0 |
| 20260506015559 | 58 | 348 | 0.0 | 3.0 | 0.00 | 0.09 | 0.08 | 85 | 1015.0 |
| 20260506015100 | 58 | 337 | 0.0 | 2.0 | 0.00 | 0.09 | 0.08 | 85 | 1015.0 |
| 20260506014557 | 58 | 354 | 0.0 | 3.0 | 0.00 | 0.09 | 0.08 | 85 | 1015.0 |
| 20260506014101 | 58 | 351 | 0.0 | 3.0 | 0.00 | 0.09 | 0.08 | 84 | 1015.0 |
| 20260506013558 | 58 | 343 | 0.0 | 2.0 | 0.00 | 0.09 | 0.08 | 84 | 1015.1 |
| 20260506013320 | 59 | 329 | 0.0 | 1.0 | 0.00 | 0.09 | 0.08 | 84 | 1015.0 |
| 20260506012559 | 59 | 341 | 0.0 | 2.0 | 0.00 | 0.09 | 0.08 | 84 | 1014.9 |
| 20260506012328 | 59 | 341 | 0.0 | 3.0 | 0.00 | 0.09 | 0.08 | 83 | 1014.9 |
| 20260506011558 | 59 | 147 | 0.0 | 3.0 | 0.00 | 0.09 | 0.08 | 83 | 1015.0 |
| 20260506011100 | 60 | 358 | 0.0 | 1.0 | 0.00 | 0.09 | 0.08 | 83 | 1014.9 |
| 20260506010558 | 60 | 269 | 0.0 | 1.0 | 0.00 | 0.09 | 0.08 | 83 | 1014.8 |
| 20260506010521 | 59 | 0 | 0.0 | 2.0 | 0.00 | 0.09 | 0.08 | 83 | 1014.8 |
| 20260506010144 | 60 | 326 | 0.0 | 2.0 | 0.00 | 0.09 | 0.08 | 83 | 1014.8 |
| 20260506005058 | 59 | 302 | 0.0 | 2.0 | 0.00 | 0.09 | 0.08 | 83 | 1014.9 |
| 20260506004558 | 59 | 354 | 1.0 | 2.0 | 0.00 | 0.09 | 0.08 | 82 | 1014.8 |
| 20260506004059 | 59 | 3 | 0.0 | 2.0 | 0.00 | 0.09 | 0.08 | 82 | 1014.7 |
| 20260506003557 | 59 | 151 | 0.0 | 3.0 | 0.00 | 0.09 | 0.08 | 82 | 1014.7 |
| 20260506003318 | 59 | 37 | 1.0 | 3.0 | 0.00 | 0.09 | 0.08 | 82 | 1014.7 |
| 20260506002557 | 60 | 330 | 0.0 | 2.0 | 0.00 | 0.09 | 0.08 | 82 | 1014.7 |
| 20260506002056 | 60 | 286 | 0.0 | 2.0 | 0.00 | 0.09 | 0.08 | 82 | 1014.7 |
| 20260506001555 | 60 | 324 | 1.0 | 4.0 | 0.00 | 0.09 | 0.08 | 81 | 1014.6 |
| 20260506001320 | 60 | 348 | 1.0 | 4.0 | 0.00 | 0.09 | 0.08 | 81 | 1014.5 |
| 20260506000556 | 60 | 343 | 1.0 | 2.0 | 0.00 | 0.09 | 0.08 | 81 | 1014.5 |
| 20260506000058 | 60 | 343 | 0.0 | 2.0 | 0.00 | 0.09 | 0.08 | 80 | 1014.5 |
| 20260505235822 | 60 | 303 | 0.0 | 1.0 | 0.00 | 0.09 | 0.08 | 80 | 1014.6 |
| 20260505235057 | 60 | 292 | 0.0 | 1.0 | 0.00 | 0.09 | 0.08 | 79 | 1014.7 |
| 20260505234556 | 61 | 337 | 0.0 | 2.0 | 0.00 | 0.09 | 0.08 | 79 | 1014.7 |
| 20260505234058 | 61 | 300 | 0.0 | 3.0 | 0.00 | 0.09 | 0.08 | 78 | 1014.7 |
| 20260505233556 | 61 | 343 | 1.0 | 3.0 | 0.00 | 0.09 | 0.08 | 78 | 1014.7 |
| 20260505233058 | 61 | 336 | 1.0 | 2.0 | 0.00 | 0.09 | 0.08 | 77 | 1014.8 |
| 20260505232555 | 62 | 333 | 0.0 | 1.0 | 0.00 | 0.09 | 0.08 | 78 | 1014.7 |
| 20260505232057 | 62 | 357 | 1.0 | 1.0 | 0.00 | 0.09 | 0.08 | 77 | 1014.8 |
| 20260505231556 | 62 | 0 | 0.0 | 1.0 | 0.00 | 0.09 | 0.08 | 78 | 1014.8 |
| 20260505231058 | 62 | 20 | 0.0 | 3.0 | 0.00 | 0.09 | 0.08 | 77 | 1014.8 |
| 20260505230555 | 62 | 343 | 2.0 | 3.0 | 0.00 | 0.09 | 0.08 | 76 | 1014.7 |
| 20260505230056 | 62 | 329 | 1.0 | 2.0 | 0.00 | 0.09 | 0.08 | 77 | 1014.8 |
| 20260505225822 | 62 | 264 | 0.0 | 2.0 | 0.00 | 0.09 | 0.08 | 77 | 1014.6 |
| 20260505225054 | 62 | 330 | 1.0 | 3.0 | 0.00 | 0.09 | 0.08 | 77 | 1014.7 |
| 20260505224553 | 62 | 329 | 1.0 | 3.0 | 0.00 | 0.09 | 0.08 | 78 | 1014.7 |
| 20260505223554 | 62 | 320 | 1.0 | 3.0 | 0.00 | 0.09 | 0.08 | 79 | 1014.6 |
| 20260505223057 | 62 | 348 | 1.0 | 3.0 | 0.00 | 0.09 | 0.08 | 77 | 1014.7 |
| 20260505222554 | 62 | 336 | 1.0 | 3.0 | 0.00 | 0.09 | 0.08 | 77 | 1014.7 |
| 20260505222055 | 62 | 327 | 1.0 | 3.0 | 0.00 | 0.09 | 0.08 | 77 | 1014.7 |
| 20260505221554 | 62 | 312 | 1.0 | 4.0 | 0.00 | 0.09 | 0.08 | 76 | 1014.7 |
| 20260505221055 | 62 | 320 | 1.0 | 4.0 | 0.00 | 0.09 | 0.08 | 77 | 1014.7 |
| 20260505220555 | 62 | 351 | 1.0 | 4.0 | 0.00 | 0.09 | 0.08 | 76 | 1014.7 |
| 20260505220055 | 62 | 347 | 1.0 | 4.0 | 0.00 | 0.09 | 0.08 | 77 | 1014.7 |
| 20260505215555 | 62 | 321 | 1.0 | 3.0 | 0.00 | 0.09 | 0.08 | 76 | 1014.8 |
| 20260505215533 | 62 | 281 | 1.0 | 4.0 | 0.00 | 0.09 | 0.08 | 77 | 1014.9 |
| 20260505214554 | 62 | 0 | 1.0 | 4.0 | 0.00 | 0.09 | 0.08 | 76 | 1014.9 |
| 20260505214055 | 62 | 350 | 2.0 | 3.0 | 0.00 | 0.09 | 0.08 | 76 | 1014.8 |
| 20260505213553 | 62 | 281 | 1.0 | 3.0 | 0.00 | 0.09 | 0.08 | 76 | 1014.9 |
| 20260505213054 | 63 | 334 | 1.0 | 3.0 | 0.00 | 0.09 | 0.08 | 77 | 1015.0 |
| 20260505212553 | 63 | 306 | 1.0 | 3.0 | 0.00 | 0.09 | 0.08 | 77 | 1015.0 |
| 20260505212053 | 63 | 326 | 1.0 | 3.0 | 0.00 | 0.09 | 0.08 | 76 | 1015.0 |
| 20260505211553 | 63 | 314 | 1.0 | 3.0 | 0.00 | 0.09 | 0.08 | 77 | 1015.0 |
| 20260505211054 | 63 | 323 | 1.0 | 3.0 | 0.00 | 0.09 | 0.08 | 75 | 1015.0 |
| 20260505210552 | 63 | 272 | 0.0 | 3.0 | 0.00 | 0.09 | 0.08 | 77 | 1015.0 |
| 20260505210053 | 63 | 320 | 1.0 | 3.0 | 0.00 | 0.09 | 0.08 | 76 | 1015.0 |
| 20260505205552 | 63 | 319 | 1.0 | 3.0 | 0.00 | 0.09 | 0.08 | 76 | 1014.9 |
| 20260505205055 | 63 | 345 | 1.0 | 3.0 | 0.00 | 0.09 | 0.08 | 76 | 1014.8 |
| 20260505204550 | 63 | 21 | 1.0 | 3.0 | 0.00 | 0.09 | 0.08 | 74 | 1014.8 |
| 20260505204051 | 63 | 348 | 1.0 | 3.0 | 0.00 | 0.09 | 0.08 | 76 | 1014.9 |
| 20260505203550 | 63 | 320 | 0.0 | 3.0 | 0.00 | 0.09 | 0.08 | 75 | 1014.9 |
| 20260505203053 | 62 | 144 | 0.0 | 3.0 | 0.00 | 0.09 | 0.08 | 76 | 1014.8 |
| 20260505202551 | 62 | 340 | 2.0 | 3.0 | 0.00 | 0.09 | 0.08 | 75 | 1015.0 |
| 20260505202055 | 62 | 214 | 1.0 | 3.0 | 0.00 | 0.09 | 0.08 | 76 | 1014.9 |
| 20260505201551 | 62 | 344 | 1.0 | 3.0 | 0.00 | 0.09 | 0.08 | 76 | 1015.0 |
| 20260505201053 | 62 | 358 | 1.0 | 2.0 | 0.00 | 0.09 | 0.08 | 74 | 1015.0 |
| 20260505200551 | 62 | 286 | 1.0 | 2.0 | 0.00 | 0.09 | 0.08 | 76 | 1014.9 |
| 20260505200319 | 62 | 258 | 0.0 | 2.0 | 0.00 | 0.09 | 0.08 | 78 | 1015.0 |
| 20260505195551 | 62 | 279 | 0.0 | 2.0 | 0.00 | 0.09 | 0.08 | 80 | 1015.1 |
| 20260505195052 | 62 | 282 | 0.0 | 3.0 | 0.00 | 0.09 | 0.08 | 79 | 1015.1 |
| 20260505194551 | 61 | 271 | 0.0 | 3.0 | 0.00 | 0.09 | 0.08 | 81 | 1015.1 |
| 20260505194051 | 61 | 341 | 1.0 | 3.0 | 0.00 | 0.09 | 0.08 | 81 | 1015.1 |
| 20260505193550 | 61 | 214 | 0.0 | 2.0 | 0.00 | 0.09 | 0.08 | 83 | 1015.1 |
| 20260505193050 | 61 | 348 | 0.0 | 3.0 | 0.00 | 0.09 | 0.08 | 85 | 1015.2 |
| 20260505192550 | 60 | 274 | 0.0 | 3.0 | 0.00 | 0.09 | 0.08 | 85 | 1015.2 |
| 20260505192050 | 60 | 227 | 0.0 | 1.0 | 0.00 | 0.09 | 0.08 | 87 | 1015.1 |
| 20260505191550 | 59 | 340 | 0.0 | 1.0 | 0.00 | 0.09 | 0.08 | 88 | 1015.2 |
| 20260505191051 | 59 | 333 | 0.0 | 1.0 | 0.00 | 0.09 | 0.08 | 88 | 1015.1 |
| 20260505190549 | 58 | 316 | 0.0 | 1.0 | 0.00 | 0.09 | 0.08 | 89 | 1015.1 |
| 20260505190051 | 58 | 247 | 0.0 | 2.0 | 0.00 | 0.09 | 0.08 | 88 | 1015.0 |
| 20260505185811 | 58 | 317 | 0.0 | 3.0 | 0.00 | 0.09 | 0.08 | 89 | 1014.9 |
| 20260505185051 | 58 | 331 | 0.0 | 3.0 | 0.00 | 0.09 | 0.08 | 88 | 1015.0 |
| 20260505184550 | 58 | 330 | 0.0 | 2.0 | 0.00 | 0.09 | 0.08 | 88 | 1015.1 |
| 20260505184051 | 58 | 4 | 0.0 | 2.0 | 0.00 | 0.09 | 0.08 | 89 | 1015.1 |
| 20260505183809 | 58 | 345 | 1.0 | 2.0 | 0.00 | 0.09 | 0.08 | 89 | 1015.1 |
| 20260505183051 | 58 | 331 | 0.0 | 1.0 | 0.00 | 0.09 | 0.08 | 90 | 1015.1 |
| 20260505182549 | 58 | 276 | 0.0 | 1.0 | 0.00 | 0.09 | 0.08 | 90 | 1015.1 |
| 20260505182051 | 57 | 278 | 0.0 | 1.0 | 0.00 | 0.09 | 0.08 | 90 | 1014.9 |
| 20260505181549 | 57 | 265 | 0.0 | 2.0 | 0.00 | 0.09 | 0.08 | 91 | 1014.9 |
| 20260505181050 | 57 | 264 | 0.0 | 2.0 | 0.00 | 0.09 | 0.08 | 91 | 1014.7 |
| 20260505180549 | 57 | 357 | 1.0 | 2.0 | 0.00 | 0.09 | 0.08 | 91 | 1014.8 |
| 20260505180049 | 57 | 330 | 0.0 | 0.0 | 0.00 | 0.09 | 0.08 | 90 | 1014.7 |
| 20260505175548 | 57 | 220 | 0.0 | 0.0 | 0.00 | 0.09 | 0.08 | 90 | 1014.6 |
| 20260505175049 | 56 | 320 | 0.0 | 1.0 | 0.00 | 0.09 | 0.08 | 90 | 1014.7 |
| 20260505174548 | 56 | 330 | 0.0 | 3.0 | 0.00 | 0.09 | 0.08 | 90 | 1014.6 |
| 20260505174049 | 56 | 243 | 0.0 | 3.0 | 0.00 | 0.09 | 0.08 | 90 | 1014.7 |
| 20260505173547 | 56 | 355 | 0.0 | 2.0 | 0.00 | 0.09 | 0.08 | 90 | 1014.6 |
| 20260505173048 | 56 | 259 | 0.0 | 1.0 | 0.00 | 0.09 | 0.08 | 90 | 1014.7 |
| 20260505172547 | 56 | 1 | 0.0 | 1.0 | 0.00 | 0.09 | 0.08 | 90 | 1014.6 |
| 20260505172048 | 55 | 357 | 0.0 | 0.0 | 0.00 | 0.09 | 0.08 | 90 | 1014.6 |
| 20260505171547 | 55 | 347 | 0.0 | 1.0 | 0.00 | 0.09 | 0.08 | 90 | 1014.6 |
| 20260505171048 | 55 | 323 | 0.0 | 1.0 | 0.00 | 0.09 | 0.08 | 90 | 1014.5 |
| 20260505170547 | 55 | 289 | 0.0 | 1.0 | 0.00 | 0.09 | 0.08 | 90 | 1014.5 |
| 20260505170048 | 55 | 350 | 0.0 | 1.0 | 0.00 | 0.09 | 0.08 | 90 | 1014.4 |
| 20260505165547 | 55 | 276 | 0.0 | 0.0 | 0.00 | 0.09 | 0.08 | 90 | 1014.4 |
| 20260505165048 | 55 | 265 | 0.0 | 2.0 | 0.01 | 0.09 | 0.08 | 90 | 1014.4 |
| 20260505164546 | 55 | 265 | 0.0 | 2.0 | 0.01 | 0.09 | 0.08 | 90 | 1014.5 |
| 20260505164048 | 55 | 254 | 0.0 | 0.0 | 0.01 | 0.09 | 0.08 | 89 | 1014.4 |
| 20260505163814 | 55 | 254 | 0.0 | 1.0 | 0.01 | 0.09 | 0.08 | 89 | 1014.4 |
| 20260505163047 | 55 | 285 | 0.0 | 1.0 | 0.01 | 0.09 | 0.08 | 89 | 1014.4 |
| 20260505162546 | 54 | 274 | 0.0 | 1.0 | 0.01 | 0.09 | 0.08 | 89 | 1014.4 |
| 20260505162048 | 54 | 354 | 0.0 | 0.0 | 0.01 | 0.09 | 0.08 | 90 | 1014.4 |
| 20260505161545 | 54 | 354 | 0.0 | 0.0 | 0.01 | 0.09 | 0.08 | 89 | 1014.3 |
| 20260505161047 | 54 | 354 | 0.0 | 0.0 | 0.01 | 0.09 | 0.08 | 89 | 1014.2 |
| 20260505160545 | 54 | 288 | 0.0 | 0.0 | 0.01 | 0.09 | 0.08 | 89 | 1014.2 |
| 20260505153048 | 53 | 331 | 0.0 | 1.0 | 0.00 | 0.08 | 0.07 | 90 | 1014.0 |
| 20260505152544 | 53 | 66 | 0.0 | 1.0 | 0.00 | 0.08 | 0.07 | 90 | 1014.0 |
| 20260505152046 | 53 | 68 | 0.0 | 0.0 | 0.00 | 0.08 | 0.07 | 90 | 1014.0 |
| 20260505151544 | 53 | 66 | 0.0 | 1.0 | 0.00 | 0.08 | 0.07 | 90 | 1013.9 |
| 20260505151046 | 53 | 66 | 0.0 | 1.0 | 0.00 | 0.08 | 0.07 | 90 | 1013.9 |
| 20260505150544 | 53 | 117 | 0.0 | 0.0 | 0.00 | 0.08 | 0.07 | 89 | 1013.8 |
| 20260505150532 | 53 | 117 | 0.0 | 0.0 | 0.00 | 0.08 | 0.07 | 89 | 1013.7 |
| 20260505140306 | 0 | 0.0 | 0.0 | 0.00 | 0.08 | 0.07 | 1013.5 | ||
| 20260505130240 | 0 | 0.0 | 0.0 | 0.00 | 0.08 | 0.07 | 1013.1 | ||
| 20260505125022 | 0 | 0.0 | 0.0 | 0.00 | 0.08 | 0.07 | 1013.3 | ||
| 20260505124519 | 0 | 0.0 | 0.0 | 0.00 | 0.08 | 0.07 | 1013.4 | ||
| 20260505124018 | 0 | 0.0 | 0.0 | 0.00 | 0.08 | 0.07 | 1013.3 | ||
| 20260505123516 | 51 | 118 | 0.0 | 0.0 | 0.00 | 0.08 | 0.07 | 90 | 1013.3 |
| 20260505123017 | 51 | 118 | 0.0 | 0.0 | 0.00 | 0.08 | 0.07 | 90 | 1013.4 |
| 20260505122516 | 51 | 118 | 0.0 | 1.0 | 0.00 | 0.08 | 0.07 | 90 | 1013.3 |
| 20260505121736 | 51 | 118 | 0.0 | 0.0 | 0.00 | 0.08 | 0.07 | 90 | 1013.2 |
| 20260505121016 | 51 | 118 | 0.0 | 0.0 | 0.00 | 0.08 | 0.07 | 90 | 1013.1 |
| 20260505120515 | 51 | 118 | 0.0 | 0.0 | 0.00 | 0.08 | 0.07 | 90 | 1013.1 |
| 20260505120017 | 51 | 118 | 0.0 | 0.0 | 0.00 | 0.08 | 0.07 | 90 | 1013.3 |
| 20260505115513 | 51 | 118 | 0.0 | 0.0 | 0.00 | 0.08 | 0.07 | 90 | 1013.3 |
| 20260505115238 | 51 | 118 | 0.0 | 0.0 | 0.00 | 0.08 | 0.07 | 90 | 1013.3 |
| 20260505114515 | 51 | 118 | 0.0 | 0.0 | 0.00 | 0.08 | 0.07 | 90 | 1013.4 |
| 20260505114016 | 51 | 118 | 0.0 | 0.0 | 0.00 | 0.08 | 0.07 | 90 | 1013.5 |
| 20260505113514 | 51 | 118 | 0.0 | 0.0 | 0.00 | 0.08 | 0.07 | 90 | 1013.6 |
| 20260505113014 | 51 | 118 | 0.0 | 0.0 | 0.00 | 0.08 | 0.07 | 90 | 1013.6 |
| 20260505112514 | 51 | 118 | 0.0 | 0.0 | 0.00 | 0.08 | 0.07 | 90 | 1013.4 |
| 20260505112015 | 51 | 118 | 0.0 | 0.0 | 0.00 | 0.08 | 0.07 | 90 | 1013.4 |
| 20260505111958 | 51 | 118 | 0.0 | 0.0 | 0.00 | 0.08 | 0.07 | 90 | 1013.4 |
| 20260505111239 | 51 | 118 | 0.0 | 0.0 | 0.00 | 0.08 | 0.07 | 90 | 1013.5 |
| 20260505110513 | 51 | 118 | 0.0 | 0.0 | 0.00 | 0.08 | 0.07 | 90 | 1013.4 |
| 20260505102014 | 51 | 118 | 0.0 | 0.0 | 0.01 | 0.08 | 0.07 | 90 | 1013.4 |
| 20260505101513 | 51 | 118 | 0.0 | 0.0 | 0.01 | 0.08 | 0.07 | 90 | 1013.5 |
| 20260505101013 | 51 | 118 | 0.0 | 0.0 | 0.01 | 0.08 | 0.07 | 90 | 1013.6 |
| 20260505100512 | 51 | 118 | 0.0 | 0.0 | 0.01 | 0.08 | 0.07 | 90 | 1013.4 |
| 20260505100014 | 51 | 118 | 0.0 | 0.0 | 0.01 | 0.08 | 0.07 | 90 | 1013.5 |
| 20260505095513 | 51 | 118 | 0.0 | 0.0 | 0.02 | 0.08 | 0.07 | 90 | 1013.7 |
| 20260505095234 | 51 | 118 | 0.0 | 1.0 | 0.01 | 0.07 | 0.06 | 90 | 1013.6 |
| 20260505094734 | 51 | 118 | 0.0 | 1.0 | 0.01 | 0.07 | 0.06 | 90 | 1013.5 |
| 20260505094014 | 51 | 147 | 0.0 | 0.0 | 0.02 | 0.07 | 0.06 | 90 | 1013.6 |
| 20260505093512 | 51 | 147 | 0.0 | 0.0 | 0.02 | 0.07 | 0.06 | 90 | 1013.7 |
| 20260505093012 | 51 | 147 | 0.0 | 0.0 | 0.02 | 0.07 | 0.06 | 90 | 1013.8 |
| 20260505092512 | 51 | 147 | 0.0 | 0.0 | 0.03 | 0.07 | 0.06 | 90 | 1013.8 |
| 20260505092233 | 51 | 147 | 0.0 | 0.0 | 0.03 | 0.07 | 0.06 | 90 | 1013.9 |
| 20260505091511 | 51 | 147 | 0.0 | 0.0 | 0.03 | 0.07 | 0.06 | 90 | 1014.0 |
| 20260505091013 | 51 | 147 | 0.0 | 0.0 | 0.04 | 0.07 | 0.06 | 90 | 1014.0 |
| 20260505090511 | 51 | 147 | 0.0 | 0.0 | 0.04 | 0.07 | 0.06 | 90 | 1014.0 |
| 20260505090012 | 51 | 147 | 0.0 | 0.0 | 0.05 | 0.07 | 0.06 | 90 | 1014.1 |
| 20260505085510 | 51 | 145 | 0.0 | 0.0 | 0.04 | 0.06 | 0.06 | 90 | 1014.0 |
| 20260505085012 | 51 | 147 | 0.0 | 0.0 | 0.04 | 0.06 | 0.06 | 90 | 1014.0 |
| 20260505084511 | 51 | 147 | 0.0 | 0.0 | 0.05 | 0.06 | 0.06 | 90 | 1014.0 |
| 20260505084012 | 51 | 147 | 0.0 | 0.0 | 0.03 | 0.05 | 0.05 | 90 | 1014.0 |
| 20260505083733 | 51 | 147 | 0.0 | 0.0 | 0.03 | 0.05 | 0.04 | 90 | 1013.9 |
| 20260505083501 | 51 | 147 | 0.0 | 0.0 | 0.04 | 0.05 | 0.04 | 90 | 1013.9 |
| 20260505082510 | 51 | 147 | 0.0 | 0.0 | 0.03 | 0.04 | 0.03 | 90 | 1014.0 |
| 20260505082012 | 51 | 147 | 0.0 | 0.0 | 0.03 | 0.04 | 0.03 | 90 | 1014.0 |
| 20260505081510 | 51 | 147 | 0.0 | 0.0 | 0.03 | 0.04 | 0.03 | 90 | 1014.2 |
| 20260505081235 | 51 | 147 | 0.0 | 0.0 | 0.02 | 0.03 | 0.02 | 90 | 1014.3 |
| 20260505080510 | 51 | 147 | 0.0 | 0.0 | 0.02 | 0.03 | 0.02 | 90 | 1014.2 |
| 20260505080012 | 51 | 147 | 0.0 | 0.0 | 0.02 | 0.02 | 0.02 | 90 | 1014.3 |
| 20260505075509 | 51 | 147 | 0.0 | 0.0 | 0.02 | 0.02 | 0.02 | 90 | 1014.3 |
| 20260505075011 | 51 | 147 | 0.0 | 0.0 | 0.02 | 0.02 | 0.02 | 90 | 1014.3 |
| 20260505074509 | 51 | 147 | 0.0 | 0.0 | 0.02 | 0.02 | 0.01 | 90 | 1014.4 |
| 20260505074230 | 51 | 147 | 0.0 | 0.0 | 0.02 | 0.02 | 0.01 | 90 | 1014.5 |
| 20260505073509 | 51 | 147 | 0.0 | 0.0 | 0.02 | 0.02 | 0.01 | 90 | 1014.5 |
| 20260505073011 | 51 | 147 | 0.0 | 0.0 | 0.01 | 0.01 | 0.00 | 89 | 1014.5 |